Duncan, OK

12:17 AM CDT on September 20, 2017 (GMT -0500)
Halliburton

Weather History for KDUC - November, 2013

Change the Weather History Date:

Friday, November 22, 2013

  Actual Average (KLAW) Record (KLAW)
Temperature  
Mean Temperature 32 °F -  
Max Temperature 33 °F 61 °F 80 °F (1955)
Min Temperature 30 °F 35 °F 23 °F (1948)
Degree Days  
Heating Degree Days 34    
Moisture  
Dew Point 29 °F    
Average Humidity 89    
Maximum Humidity 100    
Minimum Humidity 80    
Precipitation  
Precipitation 0.04 in - - ()
Sea Level Pressure  
Sea Level Pressure 30.46 in    
Wind  
Wind Speed 18 mph (North)    
Max Wind Speed 26 mph    
Max Gust Speed 36 mph    
Visibility 10 miles    
Events      
Averages and records for this station are not official NWS values.
T = Trace of Precipitation, MM = Missing Value Source: NWS Daily Summary

Daily Weather History Graph

Daily Weather History Graph

Search for Another Location

Airport or City:

Trip Planner

Search our weather history database for the weather conditions in past years. The results will help you decide how hot, cold, wet, or windy it might be!

Date:

Astronomy

Nov. 22, 2013 Rise Set
Actual Time 7:12 AM CST 5:23 PM CST
Civil Twilight 6:45 AM CST 5:50 PM CST
Nautical Twilight 6:14 AM CST 6:21 PM CST
Astronomical Twilight 5:44 AM CST 6:51 PM CST
Moon 9:53 PM CST (11/22) 10:59 AM CST (11/22)
Length of Visible Light 11h 05m
Length of Day
10h 11m
Waning Gibbous, 78% of the Moon is Illuminated
Nov 22
Waning Gibbous
Nov 25
Last Quarter
Dec 2
New
Dec 9
First Quarter
Dec 17
Full

Hourly Weather History & Observations

Time (CST) Temp. Windchill Dew Point Humidity Pressure Visibility Wind Dir Wind Speed Gust Speed Precip Events Conditions
12:15 AM 33.8 °F 21.6 °F 30.2 °F 87% 30.35 in 10.0 mi North 23.0 mph 33.4 mph N/A   Overcast
12:35 AM 32.0 °F 18.9 °F 30.2 °F 93% 30.36 in 10.0 mi North 24.2 mph 35.7 mph N/A   Overcast
12:55 AM 32.0 °F 20.1 °F 30.2 °F 93% 30.36 in 10.0 mi North 19.6 mph 34.5 mph N/A   Overcast
1:15 AM 32.0 °F 18.4 °F 28.4 °F 87% 30.35 in 10.0 mi North 26.5 mph 34.5 mph N/A   Overcast
1:35 AM 32.0 °F 19.2 °F 28.4 °F 87% 30.37 in 10.0 mi NNE 23.0 mph 29.9 mph N/A   Overcast
1:55 AM 32.0 °F 20.5 °F 28.4 °F 87% 30.39 in 10.0 mi North 18.4 mph 33.4 mph N/A   Overcast
2:15 AM 32.0 °F 18.9 °F 28.4 °F 87% 30.39 in 10.0 mi North 24.2 mph 34.5 mph N/A   Overcast
2:35 AM 32.0 °F 20.8 °F 28.4 °F 87% 30.39 in 10.0 mi North 17.3 mph 28.8 mph N/A   Overcast
2:55 AM 32.0 °F 19.8 °F 28.4 °F 87% 30.39 in 10.0 mi North 20.7 mph 27.6 mph N/A   Overcast
3:15 AM 32.0 °F 18.4 °F 26.6 °F 80% 30.38 in 10.0 mi NNE 26.5 mph 33.4 mph N/A   Overcast
3:35 AM 32.0 °F 19.8 °F 26.6 °F 80% 30.40 in 10.0 mi North 20.7 mph 28.8 mph N/A   Overcast
3:55 AM 32.0 °F 21.6 °F 26.6 °F 80% 30.40 in 10.0 mi North 15.0 mph 27.6 mph N/A   Overcast
4:15 AM 32.0 °F 21.2 °F 26.6 °F 80% 30.40 in 10.0 mi North 16.1 mph 25.3 mph N/A   Overcast
4:35 AM 32.0 °F 19.5 °F 26.6 °F 80% 30.41 in 10.0 mi North 21.9 mph 31.1 mph N/A   Overcast
4:55 AM 32.0 °F 19.8 °F 26.6 °F 80% 30.41 in 10.0 mi North 20.7 mph 27.6 mph N/A   Overcast
5:15 AM 32.0 °F 20.1 °F 26.6 °F 80% 30.42 in 10.0 mi North 19.6 mph 32.2 mph N/A   Overcast
5:35 AM 32.0 °F 19.8 °F 26.6 °F 80% 30.42 in 10.0 mi North 20.7 mph 28.8 mph N/A   Overcast
5:55 AM 32.0 °F 19.8 °F 26.6 °F 80% 30.43 in 10.0 mi North 20.7 mph 28.8 mph N/A   Overcast
6:15 AM 30.2 °F 18.5 °F 26.6 °F 86% 30.44 in 10.0 mi NNE 17.3 mph 28.8 mph N/A   Overcast
6:35 AM 30.2 °F 18.1 °F 26.6 °F 86% 30.44 in 10.0 mi North 18.4 mph 29.9 mph N/A   Overcast
6:55 AM 30.2 °F 17.8 °F 24.8 °F 80% 30.47 in 10.0 mi North 19.6 mph 27.6 mph N/A   Overcast
7:15 AM 30.2 °F 18.5 °F 26.6 °F 86% 30.47 in 10.0 mi North 17.3 mph 25.3 mph N/A   Overcast
7:35 AM 30.2 °F 18.9 °F 26.6 °F 86% 30.49 in 10.0 mi North 16.1 mph 21.9 mph N/A   Overcast
7:55 AM 30.2 °F 18.1 °F 26.6 °F 86% 30.49 in 10.0 mi NNE 18.4 mph 28.8 mph N/A   Overcast
8:15 AM 30.2 °F 17.8 °F 26.6 °F 86% 30.49 in 10.0 mi NNE 19.6 mph - N/A   Overcast
8:35 AM 30.2 °F 18.1 °F 26.6 °F 86% 30.48 in 10.0 mi NNE 18.4 mph 27.6 mph N/A   Overcast
8:55 AM 30.2 °F 18.1 °F 28.4 °F 93% 30.47 in 10.0 mi NNE 18.4 mph 25.3 mph N/A   Overcast
9:15 AM 30.2 °F 17.8 °F 26.6 °F 86% 30.50 in 10.0 mi NNE 19.6 mph 24.2 mph N/A   Overcast
9:35 AM 32.0 °F 24.2 °F 26.6 °F 80% 30.53 in 10.0 mi North 9.2 mph 25.3 mph N/A   Overcast
9:55 AM 32.0 °F 20.8 °F 26.6 °F 80% 30.51 in 10.0 mi North 17.3 mph 24.2 mph N/A   Overcast
10:15 AM 32.0 °F 20.5 °F 26.6 °F 80% 30.52 in 10.0 mi North 18.4 mph 27.6 mph N/A   Overcast
10:35 AM 32.0 °F 20.5 °F 26.6 °F 80% 30.51 in 10.0 mi North 18.4 mph 29.9 mph N/A   Overcast
10:55 AM 32.0 °F 19.5 °F 26.6 °F 80% 30.50 in 10.0 mi North 21.9 mph 29.9 mph N/A   Overcast
11:15 AM 32.0 °F 18.9 °F 26.6 °F 80% 30.50 in 10.0 mi North 24.2 mph 31.1 mph N/A   Overcast
11:35 AM 32.0 °F 19.5 °F 26.6 °F 80% 30.49 in 10.0 mi North 21.9 mph 32.2 mph N/A   Overcast
11:55 AM 32.0 °F 18.6 °F 26.6 °F 80% 30.49 in 10.0 mi North 25.3 mph 32.2 mph N/A   Overcast
12:15 PM 32.0 °F 20.5 °F 26.6 °F 80% 30.50 in 10.0 mi North 18.4 mph 21.9 mph N/A   Overcast
12:35 PM 32.0 °F 20.8 °F 26.6 °F 80% 30.49 in 10.0 mi North 17.3 mph 28.8 mph N/A   Overcast
12:55 PM 32.0 °F 20.5 °F 28.4 °F 87% 30.48 in 10.0 mi North 18.4 mph 26.5 mph N/A   Overcast
1:15 PM 32.0 °F 20.1 °F 28.4 °F 87% 30.48 in 10.0 mi North 19.6 mph 26.5 mph N/A   Overcast
1:35 PM 32.0 °F 20.1 °F 28.4 °F 87% 30.47 in 10.0 mi North 19.6 mph 27.6 mph N/A   Overcast
1:55 PM 32.0 °F 21.6 °F 30.2 °F 93% 30.46 in 10.0 mi North 15.0 mph 25.3 mph N/A   Overcast
2:15 PM 32.0 °F 22.1 °F 30.2 °F 93% 30.46 in 10.0 mi NNE 13.8 mph 20.7 mph N/A   Overcast
2:35 PM 32.0 °F 21.2 °F 30.2 °F 93% 30.46 in 10.0 mi NNE 16.1 mph 21.9 mph 0.02 in   Overcast
2:55 PM 32.0 °F 23.0 °F 32.0 °F 100% 30.47 in 10.0 mi North 11.5 mph - 0.03 in   Overcast
3:15 PM 32.0 °F 22.5 °F 32.0 °F 100% 30.47 in 10.0 mi North 12.7 mph 19.6 mph N/A   Overcast
3:35 PM 32.0 °F 23.0 °F 32.0 °F 100% 30.47 in 10.0 mi North 11.5 mph - N/A   Overcast
3:55 PM 32.0 °F 22.5 °F 32.0 °F 100% 30.47 in 10.0 mi NNE 12.7 mph 19.6 mph 0.01 in   Overcast
4:15 PM 32.0 °F 23.0 °F 32.0 °F 100% 30.47 in 10.0 mi North 11.5 mph 16.1 mph N/A   Overcast
4:35 PM 32.0 °F 23.0 °F 30.2 °F 93% 30.47 in 10.0 mi NNE 11.5 mph 16.1 mph N/A   Overcast
4:55 PM 32.0 °F 22.1 °F 32.0 °F 100% 30.47 in 10.0 mi NNE 13.8 mph 17.3 mph N/A   Overcast
5:15 PM 32.0 °F 23.6 °F 32.0 °F 100% 30.48 in 10.0 mi North 10.4 mph - N/A   Overcast
5:35 PM 32.0 °F 23.6 °F 32.0 °F 100% 30.48 in 10.0 mi North 10.4 mph - N/A   Overcast
5:55 PM 32.0 °F 23.6 °F 32.0 °F 100% 30.49 in 10.0 mi North 10.4 mph - N/A   Overcast
6:15 PM 32.0 °F 23.6 °F 30.2 °F 93% 30.49 in 10.0 mi North 10.4 mph 18.4 mph N/A   Overcast
6:35 PM 32.0 °F 23.6 °F 30.2 °F 93% 30.50 in 10.0 mi North 10.4 mph - N/A   Overcast
6:55 PM 32.0 °F 22.5 °F 30.2 °F 93% 30.49 in 10.0 mi North 12.7 mph - N/A   Overcast
7:15 PM 32.0 °F 24.2 °F 30.2 °F 93% 30.50 in 10.0 mi NNE 9.2 mph - N/A   Overcast
7:35 PM 30.2 °F 20.2 °F 30.2 °F 100% 30.49 in 10.0 mi North 12.7 mph 19.6 mph N/A   Overcast
7:55 PM 30.2 °F 21.9 °F 30.2 °F 100% 30.50 in 10.0 mi North 9.2 mph 17.3 mph N/A   Overcast
8:15 PM 30.2 °F 21.3 °F 30.2 °F 100% 30.51 in 10.0 mi North 10.4 mph 16.1 mph N/A   Overcast
8:35 PM 30.2 °F 20.8 °F 30.2 °F 100% 30.50 in 10.0 mi NNE 11.5 mph - N/A   Overcast
8:55 PM 30.2 °F 23.4 °F 30.2 °F 100% 30.51 in 10.0 mi North 6.9 mph - N/A   Overcast
9:15 PM 30.2 °F 20.8 °F 30.2 °F 100% 30.51 in 10.0 mi North 11.5 mph - N/A   Overcast
9:35 PM 32.0 °F 24.2 °F 30.2 °F 93% 30.51 in 10.0 mi North 9.2 mph - N/A   Overcast
9:55 PM 32.0 °F 24.8 °F 30.2 °F 93% 30.51 in 10.0 mi North 8.1 mph - N/A   Overcast
10:15 PM 32.0 °F 23.0 °F 32.0 °F 100% 30.51 in 10.0 mi North 11.5 mph - N/A   Overcast
10:35 PM 32.0 °F 23.6 °F 30.2 °F 93% 30.51 in 10.0 mi NNE 10.4 mph - N/A   Overcast
10:55 PM 32.0 °F 24.2 °F 30.2 °F 93% 30.51 in 10.0 mi North 9.2 mph - N/A   Overcast
11:15 PM 32.0 °F 23.0 °F 30.2 °F 93% 30.52 in 10.0 mi NNE 11.5 mph 16.1 mph N/A   Overcast
11:35 PM 32.0 °F 22.5 °F 30.2 °F 93% 30.52 in 10.0 mi North 12.7 mph - N/A   Overcast
11:55 PM 32.0 °F 24.2 °F 30.2 °F 93% 30.52 in 10.0 mi North 9.2 mph - N/A   Overcast